Back to catalog

JILIN-1 GAOFEN 07C 02 XING

AliveScienceSSO
NORAD 68697·PAYLOAD·🇨🇳 China
This satellite name has not been confirmed by official sources yet.

Launched Apr 14, 2026 from Jiuquan Satellite Launch Center

Loading…

Next Passes (next 24 hours)

TLE

FreshSource: Space-Track

Epoch: Sep 14, 2026, 15:01 UTC

1 68697U 26080G   26257.62606836  .00004567  00000-0  29273-3 0  9999
2 68697  97.6591 333.1555 0017606 124.8315 235.4572 15.08903103 23119

Track JILIN-1 GAOFEN 07C 02 XING in real time with AllMySat

Download on the App Store